| time (UTC) | temp F | wind direction | speed MPH | gust MPH | rain 1hr in | rain 24hr in | rain mn in | humidity % | barometer mb |
| 20260502213939 | 58 | 0 | 0.0 | 0.0 | 0.00 | 0.00 | 0.00 | 53 | 1019.9 |
| 20260502213036 | 58 | 0 | 0.0 | 0.0 | 0.00 | 0.00 | 0.00 | 52 | 1019.9 |
| 20260502211925 | 58 | 315 | 0.0 | 2.0 | 0.00 | 0.00 | 0.00 | 53 | 1019.7 |
| 20260502211236 | 58 | 326 | 0.0 | 2.0 | 0.00 | 0.00 | 0.00 | 54 | 1019.7 |
| 20260502210338 | 58 | 0 | 0.0 | 0.0 | 0.00 | 0.00 | 0.00 | 54 | 1019.8 |
| 20260502205225 | 59 | 0 | 0.0 | 0.0 | 0.00 | 0.00 | 0.00 | 53 | 1019.8 |
| 20260502204325 | 60 | 0 | 0.0 | 0.0 | 0.00 | 0.00 | 0.00 | 53 | 1019.9 |
| 20260502203425 | 60 | 180 | 0.0 | 1.0 | 0.00 | 0.00 | 0.00 | 51 | 1019.9 |
| 20260502202525 | 61 | 0 | 0.0 | 0.0 | 0.00 | 0.00 | 0.00 | 51 | 1019.9 |
| 20260502201625 | 61 | 0 | 0.0 | 0.0 | 0.00 | 0.00 | 0.00 | 51 | 1020.0 |
| 20260502200725 | 61 | 0 | 0.0 | 0.0 | 0.00 | 0.00 | 0.00 | 51 | 1020.0 |
| 20260502195825 | 61 | 0 | 0.0 | 0.0 | 0.00 | 0.00 | 0.00 | 50 | 1020.0 |
| 20260502195137 | 62 | 0 | 0.0 | 0.0 | 0.00 | 0.00 | 0.00 | 50 | 1020.0 |
| 20260502194025 | 62 | 0 | 0.0 | 0.0 | 0.00 | 0.00 | 0.00 | 49 | 1019.9 |
| 20260502193125 | 62 | 0 | 0.0 | 0.0 | 0.00 | 0.00 | 0.00 | 48 | 1019.9 |
| 20260502192439 | 62 | 0 | 0.0 | 0.0 | 0.00 | 0.00 | 0.00 | 48 | 1019.9 |
| 20260502191537 | 63 | 0 | 0.0 | 0.0 | 0.00 | 0.00 | 0.00 | 47 | 1019.9 |
| 20260502190425 | 64 | 0 | 0.0 | 0.0 | 0.00 | 0.00 | 0.00 | 45 | 1019.9 |
| 20260502185525 | 64 | 0 | 0.0 | 0.0 | 0.00 | 0.00 | 0.00 | 44 | 1019.7 |
| 20260502184839 | 64 | 0 | 0.0 | 0.0 | 0.00 | 0.00 | 0.00 | 43 | 1019.6 |
| 20260502183725 | 65 | 0 | 0.0 | 0.0 | 0.00 | 0.00 | 0.00 | 41 | 1019.6 |
| 20260502181925 | 66 | 175 | 0.0 | 4.0 | 0.00 | 0.00 | 0.00 | 38 | 1019.5 |
| 20260502181238 | 67 | 147 | 0.0 | 4.0 | 0.00 | 0.00 | 0.00 | 38 | 1019.5 |
| 20260502180125 | 67 | 153 | 1.0 | 4.0 | 0.00 | 0.00 | 0.00 | 36 | 1019.5 |
| 20260502164236 | 71 | 152 | 3.0 | 12.0 | 0.00 | 0.00 | 0.00 | 30 | 1019.5 |
| 20260502163125 | 73 | 168 | 2.0 | 8.0 | 0.00 | 0.00 | 0.00 | 28 | 1019.5 |
| 20260502162225 | 74 | 157 | 3.0 | 8.0 | 0.00 | 0.00 | 0.00 | 26 | 1019.6 |
| 20260502161538 | 74 | 167 | 4.0 | 9.0 | 0.00 | 0.00 | 0.00 | 24 | 1019.5 |
| 20260502160425 | 77 | 201 | 2.0 | 8.0 | 0.00 | 0.00 | 0.00 | 19 | 1019.7 |
| 20260502152138 | 77 | 230 | 2.0 | 9.0 | 0.00 | 0.00 | 0.00 | 13 | 1020.2 |
| 20260502151025 | 77 | 183 | 2.0 | 6.0 | 0.00 | 0.00 | 0.00 | 13 | 1020.1 |
| 20260502150125 | 77 | 208 | 2.0 | 6.0 | 0.00 | 0.00 | 0.00 | 14 | 1020.3 |
| 20260502130425 | 76 | 220 | 5.0 | 11.0 | 0.00 | 0.00 | 0.00 | 15 | 1021.8 |
| 20260502123726 | 76 | 224 | 2.0 | 12.0 | 0.00 | 0.00 | 0.00 | 15 | 1022.3 |
| 20260502123037 | 75 | 222 | 3.0 | 9.0 | 0.00 | 0.00 | 0.00 | 15 | 1022.4 |
| 20260502122139 | 75 | 214 | 3.0 | 8.0 | 0.00 | 0.00 | 0.00 | 15 | 1022.5 |
| 20260502121237 | 75 | 180 | 2.0 | 8.0 | 0.00 | 0.00 | 0.00 | 14 | 1022.6 |
| 20260502120125 | 75 | 186 | 2.0 | 8.0 | 0.00 | 0.00 | 0.00 | 15 | 1022.8 |
| 20260502115225 | 74 | 239 | 3.0 | 11.0 | 0.00 | 0.00 | 0.00 | 17 | 1022.9 |
| 20260502114325 | 74 | 194 | 3.0 | 10.0 | 0.00 | 0.00 | 0.00 | 16 | 1023.1 |
| 20260502113425 | 74 | 200 | 3.0 | 10.0 | 0.00 | 0.00 | 0.00 | 16 | 1023.2 |
| 20260502112525 | 74 | 231 | 3.0 | 12.0 | 0.00 | 0.00 | 0.00 | 17 | 1023.3 |
| 20260502111625 | 73 | 234 | 3.0 | 13.0 | 0.00 | 0.00 | 0.00 | 18 | 1023.5 |
| 20260502110725 | 73 | 270 | 4.0 | 13.0 | 0.00 | 0.00 | 0.00 | 18 | 1023.5 |
| 20260502105825 | 73 | 227 | 2.0 | 9.0 | 0.00 | 0.00 | 0.00 | 19 | 1023.6 |
| 20260502104925 | 73 | 262 | 3.0 | 10.0 | 0.00 | 0.00 | 0.00 | 19 | 1023.8 |
| 20260502104025 | 73 | 256 | 3.0 | 8.0 | 0.00 | 0.00 | 0.00 | 20 | 1023.9 |
| 20260502103338 | 73 | 219 | 3.0 | 8.0 | 0.00 | 0.00 | 0.00 | 21 | 1023.9 |
| 20260502102225 | 72 | 205 | 3.0 | 9.0 | 0.00 | 0.00 | 0.00 | 22 | 1024.0 |
| 20260502101325 | 71 | 223 | 4.0 | 10.0 | 0.00 | 0.00 | 0.00 | 21 | 1024.2 |
| 20260502100634 | 70 | 225 | 4.0 | 9.0 | 0.00 | 0.00 | 0.00 | 25 | 1024.3 |
| 20260502091239 | 69 | 218 | 1.0 | 4.0 | 0.00 | 0.00 | 0.00 | 26 | 1024.8 |
| 20260502090336 | 69 | 218 | 1.0 | 5.0 | 0.00 | 0.00 | 0.00 | 26 | 1024.8 |
| 20260502071325 | 64 | 89 | 0.0 | 2.0 | 0.00 | 0.00 | 0.00 | 37 | 1025.5 |
| 20260502070636 | 63 | 90 | 0.0 | 4.0 | 0.00 | 0.00 | 0.00 | 38 | 1025.7 |
| 20260502065739 | 62 | 48 | 0.0 | 4.0 | 0.00 | 0.00 | 0.00 | 38 | 1025.8 |
| 20260502064836 | 62 | 82 | 0.0 | 4.0 | 0.00 | 0.00 | 0.00 | 39 | 1025.8 |
| 20260502063938 | 61 | 77 | 0.0 | 3.0 | 0.00 | 0.00 | 0.00 | 41 | 1025.9 |
| 20260502062825 | 61 | 101 | 0.0 | 3.0 | 0.00 | 0.00 | 0.00 | 43 | 1025.9 |
| 20260502062138 | 60 | 78 | 0.0 | 4.0 | 0.00 | 0.00 | 0.00 | 45 | 1025.8 |
| 20260502061235 | 58 | 55 | 1.0 | 3.0 | 0.00 | 0.00 | 0.00 | 48 | 1025.9 |
| 20260502060338 | 56 | 36 | 1.0 | 6.0 | 0.00 | 0.00 | 0.00 | 50 | 1025.9 |
| 20260502055225 | 55 | 22 | 2.0 | 4.0 | 0.00 | 0.00 | 0.00 | 52 | 1025.7 |
| 20260502054325 | 54 | 9 | 2.0 | 5.0 | 0.00 | 0.00 | 0.00 | 52 | 1025.9 |
| 20260502053635 | 53 | 10 | 2.0 | 5.0 | 0.00 | 0.00 | 0.00 | 55 | 1025.8 |
| 20260502052525 | 52 | 45 | 0.0 | 1.0 | 0.00 | 0.00 | 0.00 | 58 | 1025.7 |
| 20260502051834 | 51 | 6 | 0.0 | 2.0 | 0.00 | 0.00 | 0.00 | 58 | 1025.9 |
| 20260502050726 | 50 | 360 | 0.0 | 3.0 | 0.00 | 0.00 | 0.00 | 59 | 1025.7 |
| 20260502050039 | 50 | 3 | 1.0 | 4.0 | 0.00 | 0.00 | 0.00 | 60 | 1025.6 |
| 20260502044925 | 49 | 329 | 0.0 | 1.0 | 0.00 | 0.00 | 0.00 | 60 | 1025.7 |
| 20260502044025 | 49 | 10 | 0.0 | 2.0 | 0.00 | 0.00 | 0.00 | 60 | 1025.7 |
| 20260502043336 | 49 | 2 | 0.0 | 2.0 | 0.00 | 0.00 | 0.00 | 60 | 1025.7 |
| 20260502042225 | 48 | 0 | 0.0 | 0.0 | 0.00 | 0.00 | 0.00 | 60 | 1025.7 |
| 20260502041536 | 48 | 0 | 0.0 | 0.0 | 0.00 | 0.00 | 0.00 | 59 | 1025.6 |
| 20260502040426 | 48 | 360 | 0.0 | 1.0 | 0.00 | 0.00 | 0.00 | 58 | 1025.8 |
| 20260502035525 | 47 | 345 | 0.0 | 2.0 | 0.00 | 0.00 | 0.00 | 58 | 1025.8 |
| 20260502034838 | 47 | 307 | 0.0 | 2.0 | 0.00 | 0.00 | 0.00 | 58 | 1025.8 |
| 20260502033935 | 47 | 0 | 0.0 | 0.0 | 0.00 | 0.00 | 0.00 | 59 | 1025.6 |
| 20260502032825 | 47 | 32 | 0.0 | 2.0 | 0.00 | 0.00 | 0.00 | 60 | 1025.7 |
| 20260502031925 | 46 | 360 | 0.0 | 1.0 | 0.00 | 0.00 | 0.00 | 61 | 1025.7 |
| 20260502031025 | 45 | 0 | 0.0 | 0.0 | 0.00 | 0.00 | 0.00 | 60 | 1025.8 |
| 20260502030125 | 45 | 0 | 0.0 | 0.0 | 0.00 | 0.00 | 0.00 | 59 | 1025.8 |
| 20260502025437 | 46 | 0 | 0.0 | 0.0 | 0.00 | 0.00 | 0.00 | 59 | 1025.8 |
| 20260502024325 | 46 | 0 | 0.0 | 0.0 | 0.00 | 0.00 | 0.00 | 59 | 1025.8 |
| 20260502023637 | 45 | 0 | 0.0 | 0.0 | 0.00 | 0.00 | 0.00 | 60 | 1025.9 |
| 20260502022525 | 44 | 0 | 0.0 | 0.0 | 0.00 | 0.00 | 0.00 | 60 | 1026.2 |
| 20260502021625 | 45 | 0 | 0.0 | 0.0 | 0.00 | 0.00 | 0.00 | 59 | 1026.0 |
| 20260502020939 | 46 | 0 | 0.0 | 0.0 | 0.00 | 0.00 | 0.00 | 59 | 1025.9 |
| 20260502015825 | 46 | 0 | 0.0 | 0.0 | 0.00 | 0.00 | 0.00 | 58 | 1026.0 |
| 20260502015138 | 46 | 0 | 0.0 | 0.0 | 0.00 | 0.00 | 0.00 | 57 | 1025.9 |
| 20260502014025 | 47 | 0 | 0.0 | 0.0 | 0.00 | 0.00 | 0.00 | 57 | 1026.0 |
| 20260502013338 | 47 | 0 | 0.0 | 0.0 | 0.00 | 0.00 | 0.00 | 57 | 1026.0 |
| 20260502012435 | 47 | 0 | 0.0 | 0.0 | 0.00 | 0.00 | 0.00 | 56 | 1026.0 |
| 20260502011325 | 47 | 0 | 0.0 | 0.0 | 0.00 | 0.00 | 0.00 | 57 | 1026.0 |
| 20260502010425 | 47 | 0 | 0.0 | 0.0 | 0.00 | 0.00 | 0.00 | 57 | 1025.9 |
| 20260502005525 | 47 | 0 | 0.0 | 0.0 | 0.00 | 0.00 | 0.00 | 57 | 1025.8 |
| 20260502004835 | 47 | 0 | 0.0 | 0.0 | 0.00 | 0.00 | 0.00 | 56 | 1025.9 |
| 20260502003937 | 47 | 0 | 0.0 | 0.0 | 0.00 | 0.00 | 0.00 | 54 | 1025.9 |
| 20260502003034 | 47 | 0 | 0.0 | 0.0 | 0.00 | 0.00 | 0.00 | 52 | 1025.9 |
| 20260502002137 | 48 | 0 | 0.0 | 0.0 | 0.00 | 0.00 | 0.00 | 51 | 1026.0 |
| 20260502001025 | 49 | 0 | 0.0 | 0.0 | 0.00 | 0.00 | 0.00 | 48 | 1026.0 |
| 20260502000337 | 49 | 0 | 0.0 | 0.0 | 0.00 | 0.00 | 0.00 | 47 | 1026.1 |
| 20260501235225 | 50 | 0 | 0.0 | 0.0 | 0.00 | 0.00 | 0.00 | 46 | 1026.1 |
| 20260501234325 | 50 | 0 | 0.0 | 0.0 | 0.00 | 0.00 | 0.00 | 46 | 1026.1 |
| 20260501233639 | 50 | 0 | 0.0 | 0.0 | 0.00 | 0.00 | 0.00 | 46 | 1026.1 |
| 20260501232525 | 50 | 0 | 0.0 | 0.0 | 0.00 | 0.00 | 0.00 | 46 | 1026.0 |
| 20260501231838 | 50 | 0 | 0.0 | 0.0 | 0.00 | 0.00 | 0.00 | 45 | 1026.0 |
| 20260501230725 | 50 | 0 | 0.0 | 0.0 | 0.00 | 0.00 | 0.00 | 44 | 1025.8 |
| 20260501225825 | 51 | 0 | 0.0 | 0.0 | 0.00 | 0.00 | 0.00 | 42 | 1025.8 |
| 20260501224925 | 52 | 0 | 0.0 | 0.0 | 0.00 | 0.00 | 0.00 | 40 | 1026.0 |
| 20260501224025 | 52 | 0 | 0.0 | 0.0 | 0.00 | 0.00 | 0.00 | 39 | 1026.0 |
| 20260501223125 | 52 | 0 | 0.0 | 0.0 | 0.00 | 0.00 | 0.00 | 39 | 1025.9 |
| 20260501222437 | 53 | 0 | 0.0 | 0.0 | 0.00 | 0.00 | 0.00 | 39 | 1025.9 |
| 20260501221326 | 53 | 0 | 0.0 | 0.0 | 0.00 | 0.00 | 0.00 | 38 | 1025.9 |
| 20260501220425 | 53 | 0 | 0.0 | 0.0 | 0.00 | 0.00 | 0.00 | 36 | 1025.7 |
| 20260501215739 | 53 | 0 | 0.0 | 0.0 | 0.00 | 0.00 | 0.00 | 36 | 1025.7 |
| 20260501214625 | 52 | 0 | 0.0 | 0.0 | 0.00 | 0.00 | 0.00 | 36 | 1025.6 |